Palmdale Regional,USAF Plant 42 Airport Palmdale US
ICAO: KPMD
IATA: PMD
Category: Medium
Scheduled Services: Yes

Elevation: 2543 ft
TransAlt. 18000 ft.

Airport Communications:
JOSHUA APP/DEP:124.55
ASOS:118.275
CTAF:123.7
GND:121.9
TWR:123.7

KPMD Zoom In..

If you have problems with the map follow the link
https://www.worldairports.se/pages/airport.php?
ICAO=KPMD

Runways:

(A) RW 04 length 12001 ft width 150 ft
---- / hdg 37

(B) RW 07 length 12002 ft width 200 ft
---- / hdg 71

(C) RW 22 length 12001 ft width 150 ft
---- / hdg 217

(D) RW 25 length 12002 ft width 200 ft
ILS 110.70 / hdg 251

Location; KPMD
Day. 19 / Time. 13.53 Zulu
* Altimeter: 30.16
* Temperature: 04° c. 39.2°f.
* Wind from: 290° Speed 03 kn.
Dewpoint: -09° c.
Visibility: 10 Statute Miles.
Clouds: Clear (automated report).

KPMD 191353Z 29003KT 10SM CLR 04/M09 A3016 RMK AO2 SLP211 T00391094


Wind From 290°
Speed 03 kn.

 
 
jpsmedia.com for Web Design worldairports.se 2018   terms of use